Wind_Speed
28 28 27 27 28 28 28 29 29 29 30 30 30 30 30 29 30 30 30 30 30 31 31 32 32 33 34 34 33 33 33 33 34 34 34 33 33 34 35 35 35 35 35 35
29 29 28 29 29 30 30 30 30 30 31 32 31 31 30 30 29 30 30 29 30 31 31 32 33 33 33 34 34 34 34 35 35 35 34 34 34 35 35 35 36 36 36 35
31 30 30 30 30 31 31 32 31 32 31 33 33 32 31 30 30 30 30 30 30 31 31 31 32 32 33 33 34 35 35 35 35 35 35 35 35 36 36 36 36 37 37 37
32 31 31 31 32 32 33 33 33 34 34 34 34 35 31 30 30 30 31 32 32 32 32 32 32 32 32 33 34 35 36 36 36 36 36 36 36 36 37 37 37 37 37 37
33 33 33 33 33 33 34 34 35 35 36 37 36 37 34 32 31 31 32 32 33 33 33 33 33 32 32 33 34 35 36 37 37 38 37 37 37 37 37 38 38 38 38 38
34 35 35 34 33 34 34 35 36 37 38 39 37 38 38 35 33 33 33 33 34 34 34 33 33 34 33 33 33 34 36 37 38 38 37 37 38 38 38 38 38 38 39 39
35 35 36 36 35 34 34 34 36 38 39 41 39 40 39 37 35 34 34 34 34 34 35 34 34 34 34 34 34 35 35 36 37 38 38 38 38 38 38 38 39 39 40 40
36 36 35 36 35 35 35 35 36 38 40 41 41 41 39 37 36 36 35 35 35 35 35 35 36 36 35 35 35 34 35 36 37 38 39 40 40 40 40 40 40 41 41 41
37 37 36 36 35 36 36 36 36 38 40 41 42 41 39 37 37 37 37 36 36 36 36 36 37 37 36 36 36 35 35 36 38 39 40 41 42 41 41 41 42 42 42 42
37 38 37 36 36 36 36 37 37 38 39 41 43 41 39 37 36 37 38 38 38 37 37 37 37 37 37 36 36 37 37 37 39 40 41 42 43 43 43 43 43 43 43 43
36 37 37 36 36 35 35 36 36 38 40 41 42 41 38 38 37 37 37 38 39 39 39 38 38 38 38 38 37 38 38 38 39 40 41 42 43 44 45 45 45 45 45 45
36 37 37 36 36 36 36 36 36 37 39 40 41 40 38 38 37 37 37 38 39 38 39 39 38 38 40 40 40 40 40 40 40 41 42 43 44 44 44 45 45 46 47 47
36 37 36 36 36 35 35 35 36 37 38 40 41 41 38 38 37 37 37 38 38 38 38 38 38 39 40 41 41 41 41 41 41 41 42 43 44 44 44 45 45 47 48 48
37 37 37 36 35 35 35 35 35 37 39 40 40 40 39 39 38 37 38 38 38 39 39 39 39 39 40 40 40 40 41 41 42 42 42 43 44 44 44 46 47 48 48 49
36 38 37 37 36 36 36 35 36 38 39 41 39 39 38 39 39 38 39 39 38 39 39 39 40 40 40 40 40 40 41 41 41 41 42 42 44 45 46 47 48 49 50 50
36 38 38 37 37 37 37 37 37 38 39 40 40 39 38 39 39 38 38 38 38 38 39 39 40 39 39 40 40 41 42 42 42 42 42 43 45 46 47 48 48 48 50 50
37 38 37 37 36 37 38 37 38 38 37 38 39 38 39 39 39 38 38 39 39 39 39 39 40 40 40 40 41 41 41 42 43 44 44 44 45 46 47 48 47 47 47 48
36 37 37 38 38 40 37 35 37 39 38 38 39 40 40 40 41 40 40 40 40 40 40 41 41 41 41 41 41 41 41 42 44 44 45 45 46 46 46 47 47 47 46 46
36 36 37 38 39 40 37 35 36 38 38 37 39 39 40 41 41 40 40 41 41 41 41 41 42 42 42 42 42 43 42 43 43 44 45 45 45 45 45 46 47 47 48 47
36 37 38 39 40 40 38 37 37 39 39 38 39 39 39 40 41 39 39 40 41 42 43 43 43 43 43 43 43 44 44 44 43 44 44 45 45 45 45 46 46 47 48 48
37 38 38 39 41 41 38 39 38 39 38 37 37 38 38 39 40 40 40 40 40 41 42 43 43 43 43 43 43 44 44 43 42 43 43 44 45 46 46 47 47 47 47 48
38 39 39 39 41 41 39 39 38 38 38 37 37 37 38 39 39 40 40 40 40 41 42 42 43 43 43 44 44 43 43 43 42 43 43 44 45 46 46 47 47 48 48 48
38 38 40 41 41 39 40 39 39 38 37 37 37 38 39 39 40 40 41 41 41 41 41 41 42 42 43 44 43 43 43 43 43 43 44 44 45 45 46 47 47 48 48 48
40 39 40 40 40 39 39 39 38 37 38 38 38 39 39 40 40 40 40 40 40 41 41 41 41 42 42 43 43 43 43 43 44 44 45 45 45 46 46 47 47 47 47 46
41 41 41 41 39 39 39 39 39 39 40 39 39 39 39 40 40 40 40 40 40 41 41 41 41 41 41 42 42 43 43 44 44 44 45 46 46 46 46 46 46 45 45 44
41 41 42 41 40 41 40 40 41 40 40 40 40 39 39 40 40 41 40 40 40 40 40 40 40 40 41 41 42 43 43 43 43 44 45 45 45 45 45 44 44 44 44 43
Wind_Direction
280 279 278 277 276 275 275 273 271 269 268 267 267 267 266 266 267 265 264 263 262 262 262 260 259 260 259 259 258 257 256 257 257 256 256 254 255 255 256 257 257 256 256 256
280 278 279 277 276 276 274 274 273 271 270 268 267 265 265 266 266 266 265 264 263 262 261 261 260 260 260 260 259 257 257 257 257 257 256 255 255 256 257 258 258 256 255 255
281 281 279 278 276 276 275 274 273 272 271 270 269 266 264 264 265 265 265 264 264 264 263 262 262 261 261 261 260 258 257 257 257 257 256 257 257 258 257 258 258 256 255 254
280 280 278 277 276 276 275 274 273 272 271 271 270 270 264 263 264 265 265 265 265 266 265 263 262 262 263 263 260 258 258 257 257 257 258 259 260 260 260 260 259 257 256 255
279 279 278 277 276 275 275 274 272 272 271 270 269 270 266 264 264 264 265 265 265 266 265 264 263 263 264 264 262 261 260 260 259 258 259 259 260 261 262 262 261 259 258 257
278 278 277 276 275 274 274 273 272 271 271 269 268 270 268 266 265 264 265 266 265 265 265 264 263 263 264 265 264 263 261 260 260 258 258 259 260 261 262 262 262 260 261 261
277 276 277 276 274 273 272 273 273 273 272 271 270 269 269 268 265 264 265 266 266 265 265 264 264 264 264 264 265 265 263 261 260 259 259 261 262 262 262 262 262 261 262 262
279 277 276 276 275 274 272 270 272 275 275 274 271 270 270 269 267 266 266 266 265 265 265 264 264 264 264 264 264 265 263 262 261 260 261 262 263 264 264 264 263 262 262 262
280 278 276 275 274 273 271 269 270 273 274 275 274 273 270 270 269 268 266 266 266 265 265 264 265 265 263 262 262 263 263 263 262 262 262 262 263 265 265 265 263 263 263 262
281 279 276 274 273 272 272 271 270 269 272 274 275 275 273 272 271 269 267 267 266 266 266 265 265 263 262 261 261 261 263 264 264 263 263 263 264 265 265 265 263 263 263 262
279 279 276 274 272 273 272 272 271 270 270 272 275 276 275 275 273 271 269 268 268 267 267 267 265 263 261 261 262 262 263 264 265 264 263 264 264 265 265 265 264 262 263 263
279 277 277 275 273 272 271 272 273 271 271 271 273 274 275 275 275 273 271 270 269 267 267 266 265 262 262 262 263 264 263 264 265 265 265 264 265 266 266 266 265 264 264 264
278 277 277 276 273 272 272 272 272 272 271 270 271 273 274 275 275 274 272 270 269 267 267 266 264 263 263 263 264 265 264 265 265 266 266 266 267 267 267 267 267 266 265 266
277 276 276 276 275 273 271 270 269 269 270 271 272 273 273 274 274 274 272 270 269 268 267 266 265 264 264 265 264 265 265 265 265 266 267 267 267 268 268 268 267 267 266 267
277 277 276 275 275 272 270 271 271 270 271 271 272 272 272 272 273 273 272 271 270 269 267 265 265 265 265 265 265 265 265 265 266 266 267 268 268 268 269 269 269 268 267 267
276 276 276 274 275 273 271 270 272 272 272 272 271 271 271 270 270 270 271 271 270 268 267 266 265 266 266 267 266 266 266 266 267 267 268 269 270 270 270 270 270 269 268 267
276 276 276 275 276 274 272 274 273 274 274 272 271 271 271 268 269 269 269 269 268 267 266 266 267 267 267 268 268 269 269 268 268 268 269 271 271 271 270 270 269 269 268 267
275 274 274 275 274 274 278 276 274 274 275 274 272 272 271 270 270 269 269 270 268 266 266 266 268 268 268 268 269 270 270 269 269 269 270 271 271 271 270 269 269 269 268 268
275 274 273 274 275 276 277 278 277 277 277 277 275 274 273 272 272 271 270 270 268 267 267 268 268 268 268 269 269 270 270 270 271 271 271 271 271 271 271 270 270 270 269 269
275 274 272 272 274 276 280 280 280 279 279 278 277 276 275 274 273 273 272 272 270 268 268 269 270 269 269 269 270 271 271 271 271 271 271 271 271 272 272 271 271 271 271 271
273 274 272 272 274 277 281 282 280 279 280 280 278 277 276 275 276 276 274 274 273 271 270 270 270 269 269 269 271 271 271 271 271 271 271 272 272 272 272 273 272 272 272 272
274 273 273 274 275 279 281 280 280 281 280 279 278 278 278 278 278 277 276 276 275 273 272 271 270 269 269 270 271 271 271 270 270 271 272 273 273 274 274 275 275 274 273 273
272 273 274 274 276 278 277 278 279 280 279 278 279 279 279 279 278 278 278 277 276 275 274 273 272 271 270 271 271 271 271 271 271 272 273 274 275 275 275 276 276 276 275 274
271 272 273 274 275 276 276 276 277 278 279 279 280 280 279 278 278 277 277 276 275 275 275 275 274 273 272 271 271 271 271 272 272 273 274 275 275 275 276 277 277 277 277 276
273 273 273 273 275 276 276 276 276 278 278 278 279 280 279 278 277 276 277 276 274 275 275 275 274 273 271 271 270 271 271 272 273 274 275 275 275 276 276 276 276 277 277 276
273 274 274 274 275 275 276 276 275 276 276 278 278 279 279 279 278 278 277 276 275 275 275 275 274 273 272 271 271 272 272 271 273 275 275 276 276 276 276 276 275 276 276 275
Height
5706 5706 5704 5703 5702 5701 5700 5699 5699 5699 5698 5698 5699 5700 5701 5701 5701 5701 5701 5702 5702 5703 5703 5703 5703 5704 5705 5705 5706 5706 5707 5707 5707 5708 5709 5710 5711 5711 5711 5712 5712 5712 5713 5714
5699 5698 5698 5695 5694 5693 5692 5691 5691 5691 5690 5690 5691 5692 5693 5694 5694 5694 5694 5694 5694 5694 5694 5695 5695 5695 5696 5697 5697 5698 5698 5699 5699 5700 5700 5701 5701 5702 5702 5703 5703 5703 5704 5705
5690 5691 5689 5687 5686 5685 5684 5683 5683 5682 5682 5681 5682 5683 5685 5686 5686 5686 5686 5686 5686 5686 5686 5686 5687 5687 5687 5688 5688 5689 5689 5689 5690 5691 5691 5692 5692 5692 5693 5693 5693 5693 5694 5696
5681 5682 5680 5679 5678 5676 5676 5676 5674 5673 5672 5672 5673 5672 5677 5678 5678 5678 5678 5678 5678 5678 5678 5678 5678 5679 5679 5679 5679 5679 5680 5680 5681 5682 5682 5683 5683 5684 5684 5684 5684 5684 5685 5686
5672 5672 5671 5670 5670 5668 5667 5666 5666 5664 5663 5663 5663 5662 5667 5668 5669 5670 5669 5669 5669 5669 5669 5669 5669 5670 5670 5670 5670 5670 5671 5671 5671 5672 5673 5673 5674 5674 5674 5674 5674 5675 5675 5676
5663 5662 5661 5660 5660 5658 5657 5657 5656 5654 5653 5652 5654 5653 5655 5658 5660 5660 5660 5660 5660 5660 5660 5660 5660 5660 5661 5661 5661 5661 5661 5661 5662 5662 5663 5663 5664 5664 5664 5664 5664 5665 5665 5666
5653 5652 5651 5650 5649 5649 5648 5647 5645 5643 5642 5642 5644 5642 5646 5648 5649 5650 5651 5651 5651 5651 5651 5651 5651 5651 5651 5651 5652 5651 5651 5652 5652 5652 5653 5654 5654 5654 5654 5654 5654 5655 5656 5656
5642 5642 5641 5640 5639 5638 5638 5637 5637 5634 5633 5633 5633 5632 5637 5638 5639 5640 5640 5640 5641 5641 5641 5641 5641 5642 5642 5642 5642 5641 5641 5642 5642 5643 5643 5644 5644 5644 5644 5644 5644 5645 5645 5646
5630 5631 5631 5629 5629 5628 5627 5626 5627 5625 5622 5622 5621 5623 5626 5628 5628 5629 5629 5629 5630 5630 5630 5631 5631 5631 5631 5632 5632 5632 5632 5632 5632 5632 5633 5633 5633 5634 5634 5634 5634 5634 5635 5635
5620 5619 5620 5619 5618 5618 5617 5617 5616 5614 5612 5611 5611 5613 5615 5617 5618 5619 5619 5619 5619 5619 5619 5619 5620 5620 5621 5621 5622 5622 5622 5622 5622 5622 5622 5622 5622 5623 5623 5623 5623 5624 5624 5624
5609 5608 5608 5608 5607 5607 5607 5607 5605 5604 5603 5602 5601 5605 5606 5606 5607 5608 5608 5608 5608 5608 5609 5609 5609 5609 5610 5610 5611 5611 5611 5611 5611 5611 5611 5611 5611 5611 5611 5611 5611 5612 5612 5612
5599 5597 5597 5598 5598 5597 5596 5596 5596 5595 5593 5592 5591 5596 5596 5596 5597 5597 5597 5597 5597 5597 5597 5597 5598 5598 5599 5599 5600 5600 5600 5600 5600 5599 5599 5599 5599 5599 5599 5599 5599 5599 5600 5600
5588 5587 5586 5586 5588 5587 5585 5586 5586 5585 5583 5582 5581 5586 5586 5586 5586 5586 5586 5586 5585 5586 5586 5586 5587 5587 5587 5587 5588 5588 5588 5588 5588 5587 5587 5587 5587 5587 5587 5586 5586 5586 5586 5586
5577 5576 5577 5577 5576 5575 5575 5576 5575 5573 5572 5571 5573 5575 5576 5575 5575 5575 5575 5575 5575 5575 5575 5575 5575 5575 5575 5575 5576 5576 5576 5576 5575 5575 5575 5575 5574 5574 5573 5573 5573 5573 5573 5573
5566 5566 5566 5566 5566 5564 5564 5565 5565 5563 5562 5562 5563 5564 5565 5564 5564 5564 5564 5563 5563 5564 5564 5564 5564 5564 5564 5564 5564 5564 5564 5563 5563 5563 5562 5562 5561 5561 5560 5560 5559 5558 5558 5558
5556 5555 5555 5555 5555 5553 5553 5555 5554 5553 5552 5551 5551 5553 5554 5552 5552 5552 5552 5551 5551 5552 5552 5552 5552 5552 5552 5552 5552 5552 5552 5551 5551 5550 5550 5549 5548 5547 5546 5546 5545 5544 5543 5543
5546 5545 5544 5543 5544 5541 5541 5546 5544 5543 5542 5541 5540 5542 5541 5540 5540 5540 5540 5540 5539 5540 5540 5540 5540 5540 5541 5541 5540 5540 5540 5539 5538 5538 5537 5536 5535 5534 5533 5531 5530 5529 5528 5528
5536 5534 5533 5532 5532 5528 5535 5535 5533 5531 5531 5530 5529 5529 5528 5528 5527 5528 5528 5527 5527 5527 5528 5528 5528 5528 5528 5528 5528 5528 5527 5526 5526 5525 5524 5523 5522 5520 5519 5518 5516 5515 5514 5514
5526 5524 5522 5521 5518 5517 5523 5524 5522 5519 5519 5520 5517 5516 5516 5515 5514 5516 5516 5515 5515 5515 5515 5516 5516 5516 5516 5516 5515 5515 5514 5514 5513 5512 5511 5510 5508 5507 5505 5504 5503 5502 5500 5499
5515 5514 5513 5510 5508 5507 5513 5513 5510 5507 5506 5508 5505 5504 5503 5502 5502 5504 5503 5503 5503 5503 5503 5503 5503 5503 5503 5503 5502 5502 5501 5500 5500 5499 5498 5496 5495 5494 5492 5490 5489 5487 5486 5484
5504 5502 5501 5500 5497 5497 5501 5499 5498 5497 5497 5496 5494 5492 5492 5491 5491 5491 5490 5490 5490 5490 5490 5490 5490 5490 5490 5490 5489 5489 5488 5487 5487 5485 5484 5483 5482 5480 5478 5477 5475 5473 5471 5470
5493 5491 5490 5489 5487 5490 5489 5488 5487 5486 5485 5483 5482 5481 5480 5480 5479 5478 5478 5478 5477 5477 5477 5476 5476 5477 5476 5476 5476 5475 5475 5474 5473 5472 5471 5470 5468 5466 5465 5463 5461 5459 5457 5455
5481 5481 5480 5480 5480 5479 5477 5476 5475 5474 5473 5472 5471 5470 5469 5468 5467 5466 5466 5466 5465 5464 5464 5464 5463 5463 5463 5462 5462 5462 5462 5461 5460 5458 5457 5456 5454 5452 5451 5449 5447 5444 5442 5440
5469 5470 5468 5467 5467 5467 5465 5464 5464 5463 5462 5460 5459 5458 5457 5456 5455 5454 5454 5453 5453 5452 5452 5451 5450 5450 5450 5449 5448 5448 5447 5447 5446 5445 5443 5442 5440 5438 5437 5435 5433 5430 5428 5426
5458 5457 5456 5455 5456 5455 5455 5453 5453 5451 5450 5449 5448 5446 5445 5444 5443 5442 5441 5441 5440 5439 5438 5437 5436 5436 5436 5435 5434 5434 5433 5432 5431 5430 5429 5427 5426 5424 5422 5420 5418 5416 5414 5412
5447 5446 5444 5443 5444 5443 5443 5442 5440 5439 5438 5437 5436 5435 5433 5432 5431 5430 5429 5428 5427 5426 5425 5424 5423 5423 5422 5421 5421 5420 5419 5418 5417 5416 5414 5413 5411 5410 5408 5406 5405 5402 5401 5399